When you browse on this site, cookies collect data to enhance your experience and personalize the content and advertising you see.
Visit our Privacy Policy to learn more. By continuing to use the site, you agree to this use of cookies and data.
  • In Latvia
  • List of Countries
  • For 7 days
  • Water Temperature
  • Satellite Maps
  • Weather Map
  • Weather Widgets
  • user-avatar
    Login

    Hourly Weather Balceana

    Today, 13 December, Thursday

    Time Temperature Precipitation Wind Pressure Humidity
    00:00 -3°C° 0 mm 4 mps 753 mmHg 82%
    01:00 -4°C° 0 mm 5 mps 753 mmHg 82%
    02:00 -2°C° 0 mm 4 mps 752 mmHg 83%
    03:00 -2°C° 0.2 mm 5 mps 752 mmHg 83%
    04:00 -2°C° 0.2 mm 5 mps 752 mmHg 83%
    05:00 -3°C° 0.2 mm 6 mps 752 mmHg 82%
    06:00 -3°C° 0.3 mm 6 mps 752 mmHg 83%
    07:00 -3°C° 0.3 mm 6 mps 752 mmHg 83%
    08:00 -3°C° 0.3 mm 6 mps 752 mmHg 83%
    09:00 -2°C° 0.2 mm 6 mps 752 mmHg 82%
    10:00 -2°C° 0.2 mm 6 mps 752 mmHg 80%
    11:00 -2°C° 0.2 mm 6 mps 752 mmHg 79%
    12:00 -1°C° 0.2 mm 6 mps 752 mmHg 79%
    13:00 -1°C° 0.2 mm 6 mps 752 mmHg 78%
    14:00 0°C° 0 mm 5 mps 752 mmHg 81%
    15:00 -1°C° 0.1 mm 5 mps 752 mmHg 82%
    16:00 -1°C° 0.1 mm 5 mps 752 mmHg 84%
    17:00 -1°C° 0.1 mm 4 mps 753 mmHg 85%
    18:00 -1°C° 0.1 mm 4 mps 753 mmHg 86%
    19:00 -2°C° 0.1 mm 4 mps 753 mmHg 88%
    20:00 -2°C° 0.1 mm 4 mps 753 mmHg 89%
    21:00 -2°C° 0.1 mm 4 mps 754 mmHg 89%
    22:00 -2°C° 0.1 mm 4 mps 754 mmHg 90%
    23:00 -2°C° 0.1 mm 4 mps 754 mmHg 91%

    Tomorrow, 14 December, Friday

    Time Temperature Precipitation Wind Pressure Humidity
    00:00 -2°C° 0 mm 4 mps 754 mmHg 91%
    01:00 -2°C° 0 mm 4 mps 755 mmHg 91%
    02:00 -3°C° 0 mm 4 mps 755 mmHg 91%
    03:00 -2°C° 0 mm 3 mps 755 mmHg 91%
    04:00 -2°C° 0 mm 3 mps 755 mmHg 91%
    05:00 -2°C° 0 mm 3 mps 756 mmHg 91%
    06:00 -2°C° 0 mm 3 mps 756 mmHg 91%
    07:00 -2°C° 0 mm 3 mps 756 mmHg 91%
    08:00 -2°C° 0 mm 3 mps 757 mmHg 91%
    09:00 -2°C° 0 mm 3 mps 757 mmHg 89%
    10:00 -1°C° 0 mm 3 mps 757 mmHg 87%
    11:00 0°C° 0 mm 3 mps 758 mmHg 84%
    12:00 0°C° 0 mm 3 mps 758 mmHg 84%
    13:00 0°C° 0 mm 3 mps 758 mmHg 83%
    14:00 0°C° 0 mm 3 mps 758 mmHg 82%
    15:00 +1°C° 0 mm 2 mps 758 mmHg 85%
    16:00 -1°C° 0 mm 2 mps 759 mmHg 87%
    17:00 +1°C° 0 mm 1 mps 759 mmHg 89%
    18:00 0°C° 0 mm 1 mps 759 mmHg 89%
    19:00 0°C° 0 mm 1 mps 760 mmHg 90%
    20:00 0°C° 0 mm 1 mps 760 mmHg 90%
    21:00 0°C° 0 mm 1 mps 760 mmHg 90%
    22:00 0°C° 0 mm 1 mps 760 mmHg 90%
    23:00 0°C° 0 mm 1 mps 760 mmHg 90%

    Day after tomorrow, 15 December, Saturday

    Time Temperature Precipitation Wind Pressure Humidity
    00:00 -1°C° 0 mm 1 mps 761 mmHg 90%
    01:00 -1°C° 0 mm 1 mps 761 mmHg 91%
    02:00 -1°C° 0 mm 1 mps 761 mmHg 91%
    03:00 -1°C° 0 mm 1 mps 761 mmHg 91%
    04:00 -1°C° 0 mm 1 mps 761 mmHg 91%
    05:00 -3°C° 0 mm 2 mps 761 mmHg 90%
    06:00 -3°C° 0 mm 2 mps 761 mmHg 90%
    07:00 -3°C° 0 mm 2 mps 761 mmHg 90%
    08:00 -3°C° 0 mm 2 mps 761 mmHg 89%
    09:00 -2°C° 0.1 mm 2 mps 762 mmHg 89%
    10:00 -2°C° 0.1 mm 3 mps 762 mmHg 88%
    11:00 -2°C° 0.1 mm 3 mps 762 mmHg 87%
    12:00 -2°C° 0.1 mm 3 mps 762 mmHg 87%
    13:00 -2°C° 0.1 mm 4 mps 762 mmHg 87%
    14:00 -2°C° 0.1 mm 4 mps 761 mmHg 86%
    15:00 -2°C° 0.1 mm 4 mps 761 mmHg 87%
    16:00 -3°C° 0.1 mm 4 mps 761 mmHg 88%
    17:00 -3°C° 0.1 mm 4 mps 761 mmHg 89%
    18:00 -3°C° 0.1 mm 4 mps 761 mmHg 89%
    19:00 -3°C° 0.1 mm 4 mps 761 mmHg 89%
    20:00 -4°C° 0.1 mm 5 mps 761 mmHg 89%
    21:00 -4°C° 0.4 mm 5 mps 761 mmHg 90%
    22:00 -4°C° 0.4 mm 5 mps 761 mmHg 90%
    23:00 -4°C° 0.4 mm 5 mps 761 mmHg 90%

    16 December, Sunday

    Time Temperature Precipitation Wind Pressure Humidity
    00:00 -4°C° 0.2 mm 5 mps 761 mmHg 90%
    01:00 -4°C° 0.2 mm 5 mps 761 mmHg 89%
    02:00 -4°C° 0.2 mm 5 mps 761 mmHg 88%
    03:00 -4°C° 0.2 mm 5 mps 761 mmHg 88%
    04:00 -4°C° 0.2 mm 6 mps 760 mmHg 88%
    05:00 -4°C° 0.2 mm 6 mps 760 mmHg 88%
    06:00 -4°C° 0.4 mm 6 mps 760 mmHg 89%
    07:00 -4°C° 0.4 mm 5 mps 760 mmHg 90%
    08:00 -4°C° 0.4 mm 5 mps 760 mmHg 91%
    09:00 -4°C° 0.3 mm 5 mps 760 mmHg 90%
    10:00 -4°C° 0.3 mm 5 mps 761 mmHg 90%
    11:00 -2°C° 0.3 mm 5 mps 761 mmHg 90%
    12:00 -2°C° 0.1 mm 5 mps 760 mmHg 90%
    13:00 -2°C° 0.1 mm 5 mps 760 mmHg 90%
    14:00 -2°C° 0.1 mm 5 mps 760 mmHg 90%
    15:00 -2°C° 0 mm 4 mps 760 mmHg 91%
    16:00 -2°C° 0 mm 4 mps 760 mmHg 91%
    17:00 -2°C° 0 mm 4 mps 760 mmHg 91%
    18:00 -3°C° 0 mm 4 mps 760 mmHg 92%
    19:00 -3°C° 0 mm 4 mps 761 mmHg 92%
    20:00 -3°C° 0 mm 4 mps 761 mmHg 92%
    21:00 -3°C° 0 mm 4 mps 761 mmHg 92%
    22:00 -4°C° 0 mm 4 mps 761 mmHg 92%
    23:00 -4°C° 0 mm 3 mps 761 mmHg 93%

    17 December, Monday

    Time Temperature Precipitation Wind Pressure Humidity
    00:00 -4°C° 0 mm 3 mps 761 mmHg 93%
    01:00 -4°C° 0 mm 3 mps 761 mmHg 93%
    02:00 -4°C° 0 mm 3 mps 760 mmHg 93%
    03:00 -3°C° 0 mm 2 mps 760 mmHg 93%
    04:00 -4°C° 0 mm 2 mps 760 mmHg 94%
    05:00 -4°C° 0 mm 2 mps 760 mmHg 94%
    06:00 -4°C° 0.1 mm 2 mps 760 mmHg 94%
    07:00 -4°C° 0.1 mm 2 mps 760 mmHg 94%
    08:00 -4°C° 0.1 mm 2 mps 760 mmHg 94%
    09:00 -4°C° 0.1 mm 2 mps 760 mmHg 93%
    10:00 -3°C° 0.1 mm 2 mps 760 mmHg 92%
    11:00 -3°C° 0.1 mm 2 mps 760 mmHg 90%
    12:00 -2°C° 0 mm 2 mps 760 mmHg 90%
    13:00 -2°C° 0 mm 2 mps 759 mmHg 89%
    14:00 -2°C° 0 mm 2 mps 759 mmHg 88%
    15:00 -2°C° 0 mm 2 mps 759 mmHg 90%
    16:00 -3°C° 0 mm 2 mps 759 mmHg 91%
    17:00 -4°C° 0 mm 2 mps 759 mmHg 92%
    18:00 -5°C° 0 mm 3 mps 759 mmHg 92%
    19:00 -5°C° 0 mm 3 mps 760 mmHg 92%
    20:00 -5°C° 0 mm 3 mps 760 mmHg 92%
    21:00 -5°C° 0 mm 3 mps 760 mmHg 92%
    22:00 -5°C° 0 mm 3 mps 760 mmHg 92%
    23:00 -4°C° 0 mm 2 mps 760 mmHg 93%

    18 December, Tuesday

    Time Temperature Precipitation Wind Pressure Humidity
    00:00 -4°C° 0 mm 2 mps 760 mmHg 93%
    01:00 -4°C° 0 mm 2 mps 760 mmHg 93%
    02:00 -4°C° 0 mm 2 mps 760 mmHg 94%
    03:00 -4°C° 0 mm 2 mps 760 mmHg 94%
    04:00 -4°C° 0 mm 2 mps 760 mmHg 94%
    05:00 -4°C° 0 mm 2 mps 760 mmHg 94%
    06:00 -4°C° 0.1 mm 2 mps 760 mmHg 94%
    07:00 -4°C° 0.1 mm 2 mps 761 mmHg 93%
    08:00 -4°C° 0.1 mm 2 mps 761 mmHg 93%
    09:00 -4°C° 0.2 mm 2 mps 761 mmHg 92%
    10:00 -4°C° 0.2 mm 2 mps 762 mmHg 91%
    11:00 -3°C° 0.2 mm 2 mps 762 mmHg 89%
    12:00 -3°C° 0.1 mm 2 mps 762 mmHg 89%
    13:00 -3°C° 0.1 mm 2 mps 762 mmHg 88%
    14:00 -3°C° 0.1 mm 2 mps 761 mmHg 88%
    15:00 -3°C° 0.1 mm 2 mps 762 mmHg 89%
    16:00 -3°C° 0.1 mm 2 mps 762 mmHg 90%
    17:00 -3°C° 0.1 mm 2 mps 762 mmHg 92%
    18:00 -4°C° 0.1 mm 2 mps 762 mmHg 92%
    19:00 -4°C° 0.1 mm 2 mps 762 mmHg 92%
    20:00 -4°C° 0.1 mm 2 mps 763 mmHg 93%
    21:00 -4°C° 0.2 mm 2 mps 763 mmHg 93%
    22:00 -2°C° 0.2 mm 1 mps 763 mmHg 93%
    23:00 -2°C° 0.2 mm 1 mps 763 mmHg 93%
    Show more